www.pogodaiklimat.ru
Время
(UTC), дата
10 7.11
11 7.11
12 7.11
13 7.11
14 7.11
15 7.11
16 7.11
17 7.11
18 7.11
19 7.11
20 7.11
21 7.11
22 7.11
23 7.11
00 8.11
01 8.11
02 8.11
03 8.11
04 8.11
05 8.11
06 8.11
07 8.11
08 8.11
09 8.11
10 8.11
11 8.11
12 8.11
13 8.11
14 8.11
15 8.11
16 8.11
17 8.11
18 8.11
19 8.11
20 8.11
21 8.11
22 8.11
23 8.11
00 9.11
01 9.11
02 9.11
03 9.11
04 9.11
05 9.11
06 9.11
07 9.11
08 9.11
09 9.11
10 9.11
11 9.11
12 9.11
13 9.11
14 9.11
15 9.11
16 9.11
17 9.11
18 9.11
19 9.11
20 9.11
21 9.11
22 9.11
23 9.11
00 10.11
01 10.11
02 10.11
03 10.11
04 10.11
05 10.11
06 10.11
07 10.11
08 10.11
09 10.11
10 10.11
11 10.11
12 10.11
13 10.11
14 10.11
15 10.11
16 10.11
17 10.11
18 10.11
20 10.11
21 10.11
22 10.11
23 10.11
00 11.11
01 11.11
02 11.11
03 11.11
04 11.11
05 11.11
06 11.11
07 11.11
08 11.11
09 11.11
10 11.11
11 11.11
12 11.11
13 11.11
14 11.11
15 11.11
16 11.11
17 11.11
18 11.11
19 11.11
20 11.11
21 11.11
22 11.11
23 11.11
00 12.11
01 12.11
02 12.11
03 12.11
04 12.11
05 12.11
06 12.11
07 12.11
08 12.11
09 12.11
10 12.11
11 12.11
12 12.11
13 12.11
14 12.11
15 12.11
16 12.11
17 12.11
18 12.11
19 12.11
20 12.11
21 12.11
22 12.11
23 12.11
00 13.11
01 13.11
02 13.11
03 13.11
04 13.11
05 13.11
06 13.11
07 13.11
08 13.11
09 13.11
10 13.11
11 13.11
12 13.11
13 13.11
14 13.11
15 13.11
16 13.11
17 13.11
18 13.11
19 13.11
Ветер
(напр.,м/с)
Видим. Явления Облачность Т
(С)
Тd
(С)
f
(%)
Тe
(С)
Тes
(С)
Комфортность P
(гПа)
Po
(гПа)
Тmin
(С)
Tmax
(С)
R
(мм)
R24
(мм)
S
(см)
З 2-3
{5}
н/о н/о -3.0 -6.1 79 -7 -7 холодно 1018.3 1017.1
ЮЗ 3-5
{5}
н/о н/о -2.4 -5.1 82 -7 -7 холодно 1018.0 1016.8
З 1
{6}
2000 м снег ?/? -2.1 1018.0 1016.8 0.4
СЗ 1-2
{2}
н/о н/о -2.3 -3.8 89 -5 -5 холодно 1017.8 1016.6
С 2-5
{6}
н/о н/о -1.4 -4.0 82 -5 -5 холодно 1017.7 1016.5
С 3-5
{7}
30 км осадки на расстоянии 5/4 300 м
[Cb cap Ac As]
-1.6 -5.6 74 -6 -6 холодно 1017.8 1016.6
С 5-8
{8}
н/о н/о -1.8 -5.0 79 -8 -8 очень
холодно
1017.8 1016.6
С 5-7
{7}
н/о н/о -2.4 -5.5 79 -9 -9 очень
холодно
1018.2 1017.0
С 4-7
{8}
28 км слаб. снег 6/6 300 м
[Sc]
-2.8 -6.6 75 -9 -9 очень
холодно
1018.4 1017.2 -6.1 -1.4 1
С 3-5
{7}
н/о н/о -3.1 -7.2 73 -8 -8 очень
холодно
1018.9 1017.7
С 5-9
{9}
н/о н/о -3.6 -6.8 78 -10 -10 очень
холодно
1018.9 1017.7
С 5-7
{9}
н/о н/о -4.1 -7.5 77 -11 -11 очень
холодно
1019.0 1017.8
С 6-8
{8}
н/о н/о -5.1 -9.0 74 -13 -13 очень
холодно
1018.9 1017.7
С 6-9
{9}
н/о н/о -5.4 -9.4 73 -13 -13 очень
холодно
1019.0 1017.8
С 6-9
{9}
40 км {снег} 1/1 300 м
[Sc]
-5.4 -9.8 71 -13 -13 очень
холодно
1019.1 1017.9 0.0
СЗ 7-10
{10}
н/о н/о -5.8 -10.1 72 -14 -14 очень
холодно
1018.9 1017.7
СЗ 8-10
{11}
н/о н/о -6.1 -9.9 74 -15 -15 очень
холодно
1019.0 1017.8
СЗ 8-10
{10}
н/о н/о -6.4 -10.2 74 -15 -15 очень
холодно
1018.8 1017.6
СЗ 7-8
{10}
н/о н/о -6.2 -9.5 77 -15 -15 очень
холодно
1018.7 1017.5
СЗ 7-9
{10}
н/о н/о -6.2 -9.5 77 -15 -15 очень
холодно
1018.7 1017.5
СЗ 8-9
{11}
30 км 1/1 600 м
[Sc]
-5.9 -8.8 80 -15 -15 очень
холодно
1018.5 1017.3 -6.6 -2.8 0.0
СЗ 7-8
{9}
н/о н/о -6.1 -9.0 80 -15 -15 очень
холодно
1018.7 1017.5
СЗ 6-6
{8}
н/о н/о -5.6 -8.5 80 -13 -13 очень
холодно
1018.9 1017.7
СЗ 5-6
{6}
30 км 6/6 600 м
[Sc]
-5.6 -8.7 79 -13 -13 очень
холодно
1018.9 1017.7
СЗ 4-5
{6}
н/о н/о -5.2 -8.2 79 -12 -12 очень
холодно
1019.0 1017.8
СЗ 4-4
{5}
н/о н/о -5.3 -8.6 78 -12 -12 очень
холодно
1019.0 1017.8
СЗ 3
{9}
30 км 8/8 600 м
[Sc]
-5.1 1018.9 1017.7
З 1-2
{3}
н/о н/о -5.0 -8.2 78 -7 -7 холодно 1018.9 1017.7
СЗ 1-2
{2}
н/о н/о -4.9 -8.2 78 -7 -7 холодно 1018.7 1017.5
штиль 0-1
{3}
40 км 9/9 600 м
[Sc]
-4.6 -8.0 77 -5 -5 холодно 1018.7 1017.5
С 2-3
{3}
н/о н/о -4.6 -7.9 78 -9 -9 очень
холодно
1018.4 1017.2
-3
{4}
н/о н/о -4.5 -7.7 78 1018.7 1017.5
С 2-3
{4}
30 км 9/9 600 м
[Sc]
-4.6 -7.6 80 -9 -9 очень
холодно
1018.7 1017.5 -6.3 -4.3
С 3-4
{4}
н/о н/о -4.7 -7.9 78 -10 -10 очень
холодно
1018.7 1017.5
СВ 3-4
{4}
н/о н/о -5.6 -8.8 78 -11 -11 очень
холодно
1018.7 1017.5
С 2-3
{4}
н/о н/о -6.5 -9.7 78 -11 -11 очень
холодно
1018.6 1017.4
С 2-2
{3}
н/о н/о -5.3 -8.0 81 -10 -10 очень
холодно
1018.8 1017.6
СЗ 1-2
{3}
н/о н/о -4.6 -7.4 81 -7 -7 холодно 1018.7 1017.5
СЗ 2-2
{4}
30 км 9/9 600 м
[Sc]
-4.3 -7.1 81 -8 -8 очень
холодно
1018.5 1017.3
С 2-2
{3}
н/о н/о -3.6 -6.4 81 -8 -8 очень
холодно
1018.6 1017.4
З 1-1
{3}
н/о н/о -2.7 -5.3 82 -5 -5 холодно 1018.4 1017.2
З 3-3
{3}
н/о н/о -3.6 -6.3 82 -9 -9 очень
холодно
1018.0 1016.8
С 2-2
{4}
н/о н/о -3.1 -5.4 84 -7 -7 холодно 1017.9 1016.7
С 2-2
{2}
н/о н/о -3.0 -4.9 87 -7 -7 холодно 1017.9 1016.7
С 3-5
{5}
30 км 9/9 600 м
[Sc]
-1.2 -3.9 82 -6 -6 холодно 1017.8 1016.6 -6.9 -1.2 <0.5
СЗ 1-1
{3}
н/о н/о -1.8 -4.5 82 -4 -4 прохладно 1018.0 1016.8
СЗ 7-8
{8}
н/о н/о -1.5 -3.8 84 -9 -9 очень
холодно
1018.7 1017.5
СЗ 6-7
{9}
30 км 9/9 600 м
[Sc]
-1.4 -3.6 85 -8 -8 очень
холодно
1019.3 1018.1
СЗ 7-10
{10}
н/о н/о -1.4 -3.5 86 -9 -9 очень
холодно
1019.8 1018.6
СЗ 7-9
{10}
н/о н/о -1.6 -3.7 86 -9 -9 очень
холодно
1020.6 1019.4
СЗ 5
{10}
30 км осадки на расстоянии 6/3 300 м
[Cu Sc Ac trans]
-1.6 -3.8 85 -8 -8 очень
холодно
1021.0 1019.8
СЗ 7-9
{9}
н/о н/о -2.2 -4.3 85 -10 -10 очень
холодно
1021.3 1020.1
СВ 1-2
{9}
н/о н/о -1.7 -4.5 81 -4 -4 прохладно 1022.0 1020.8
С 1-2
{4}
30 км слаб. ливневой дождь 9/4 300 м
[Cu Sc]
-1.4 -3.7 84 -4 -4 прохладно 1022.6 1021.4
С 1-1
{5}
н/о н/о -1.7 -3.9 85 -4 -4 прохладно 1023.0 1021.8
ЮЗ 1-1
{1}
н/о н/о -1.1 -3.0 87 -3 -3 прохладно 1023.2 1022.0
З 1-2
{9}
15 км {ливн. осадки} 10/10 300 м
[Sc]
-1.6 -3.2 89 -4 -4 прохладно 1023.5 1022.3 -2.3 -1.0 0.0
-1
{3}
н/о н/о -1.0 -2.7 88 1023.8 1022.6
ЮЗ 2-2
{2}
н/о н/о -1.1 -2.9 88 -5 -5 холодно 1024.1 1022.9
Ю 1-1
{3}
н/о н/о -0.5 -2.0 90 -3 -3 прохладно 1024.3 1023.1
С 1-1
{2}
н/о н/о -1.9 -3.9 86 -4 -4 прохладно 1024.4 1023.2
ЮВ 1-2
{2}
н/о н/о -1.3 -2.9 89 -3 -3 прохладно 1024.6 1023.4
З 1-2
{3}
15 км 9/9 600 м
[Sc]
-0.4 -1.8 90 -3 -3 прохладно 1024.5 1023.3
СВ 2-2
{2}
н/о н/о -0.8 -2.1 91 -5 -5 холодно 1024.2 1023.0
СВ 1-1
{2}
н/о н/о -0.5 -1.9 90 -3 -3 прохладно 1023.8 1022.6
СЗ 1-2
{4}
н/о н/о +0.1 -1.2 91 -2 -2 по сезону 1023.4 1022.2
З 1-1
{3}
н/о н/о -0.9 -2.4 90 -3 -3 прохладно 1023.1 1021.9
СЗ 1-1
{1}
н/о н/о -0.5 -2.1 89 -3 -3 прохладно 1022.8 1021.6
ЮВ 1-1
{4}
15 км {ливн. осадки} 9/9 300 м
[Sc]
+0.2 -1.4 89 -2 -2 по сезону 1022.4 1021.2 -2.3 +0.5 0.2 <0.5
ЮЗ 1-3
{3}
н/о н/о -0.2 -2.2 86 -2 -2 по сезону 1022.1 1020.9
Ю 4-6
{6}
н/о н/о +1.7 +0.3 90 -3 -3 прохладно 1021.8 1020.6
Ю 6-7
{7}
20 км 9/9 300 м
[Sc]
+2.4 +0.3 86 -4 -4 прохладно 1021.5 1020.3
Ю 5-6
{8}
н/о н/о +2.5 -1.9 73 -3 -3 прохладно 1021.1 1019.9
Ю 5-7
{7}
н/о н/о +2.4 -1.8 74 -3 -3 прохладно 1020.7 1019.5
Ю 6
{8}
20 км осадки на расстоянии 9/5 600 м
[Sc Ac lent]
+2.6 +0.6 87 -3 -3 прохладно 1020.2 1019.0
Ю 7-8
{8}
н/о н/о +2.4 +0.9 90 -4 -4 прохладно 1019.8 1018.6
Ю 7-9
{14}
н/о н/о +1.6 +0.2 90 -5 -5 холодно 1019.4 1018.2
Ю 7-13
{13}
15 км крупа {ливн. осадки} 9/4 200 м
[Cb cap Ac lent Cs]
+2.1 +0.8 91 -4 -4 прохладно 1018.8 1017.6
ЮЗ 4-5
{13}
н/о н/о +1.3 +0.1 92 -4 -4 прохладно 1018.6 1017.4
ЮЗ 10-13
{13}
н/о н/о +0.7 -0.3 93 -7 -7 холодно 1018.5 1017.3
Ю 3-4
{14}
15 км в посл. час ливневой снег 9/9 300 м
[Sc]
+1.2 -0.4 89 -3 -3 прохладно 1018.3 1017.1 -0.3 +2.7 0.2
Ю 8-12
{12}
н/о н/о +1.3 0.0 91 -6 -6 холодно 1018.3 1017.1
ЮЗ 5-9
{10}
н/о н/о +1.5 -0.7 85 -4 -4 прохладно 1017.9 1016.7
Ю 2-3
{6}
н/о н/о +1.8 +0.5 91 -2 -2 по сезону 1018.2 1017.0
Ю 4-6
{6}
н/о н/о +2.0 -0.1 86 -3 -3 прохладно 1017.8 1016.6
ЮЗ 3-3
{12}
15 км слаб. морось 10/9 600 м
[Frnb As op]
+1.9 -0.0 87 -2 -2 по сезону 1017.9 1016.7 0.5
ЮЗ 2-3
{6}
н/о н/о +2.1 -1.3 78 -1 -1 по сезону 1017.7 1016.5
Ю 6-7
{7}
н/о н/о +2.4 -0.8 79 -3 -3 прохладно 1017.4 1016.2
Ю 2-3
{7}
н/о н/о +2.1 -0.3 84 -1 -1 по сезону 1017.3 1016.1
СЗ 1-1
{3}
н/о н/о +1.9 -0.6 83 0 0 по сезону 1017.1 1015.9
С 1-1
{2}
н/о н/о +1.6 -0.8 84 -0 -0 по сезону 1017.0 1015.8
СЗ 1
{7}
15 км 10/9 600 м
[Sc]
+1.7 -1.6 79 0 0 по сезону 1017.3 1016.1 +0.9
ЮЗ 3-4
{5}
н/о н/о +2.0 -0.9 81 -2 -2 по сезону 1017.6 1016.4
Ю 4-6
{6}
н/о н/о +2.1 +0.5 89 -3 -3 прохладно 1017.7 1016.5
Ю 2-3
{6}
12 км осадки на расстоянии 9/9 300 м
[Sc]
+1.8 0.0 88 -2 -2 по сезону 1017.8 1016.6
ЮЗ 2-5
{6}
н/о н/о +2.2 -0.4 83 -1 -1 по сезону 1017.8 1016.6
ЮЗ 3-4
{4}
н/о н/о +2.0 -0.3 85 -2 -2 по сезону 1017.8 1016.6
ЮЗ 3-4
{6}
25 км 8/6 600 м
[Sc Ac lent]
+2.0 -1.0 80 -2 -2 по сезону 1017.8 1016.6 0.0
Ю 3-4
{4}
н/о н/о +2.3 -0.8 80 -2 -2 по сезону 1017.6 1016.4
З 2-2
{4}
н/о н/о +2.2 -1.0 79 -1 -1 по сезону 1017.3 1016.1
ЮЗ 1-1
{2}
30 км 9/9 600 м
[Sc]
+1.9 -1.0 81 0 0 по сезону 1017.1 1015.9
З 1-1
{1}
н/о н/о +1.5 -1.8 79 -0 -0 по сезону 1017.1 1015.9
З 3-3
{3}
н/о н/о +0.9 -3.5 72 -3 -3 прохладно 1017.2 1016.0
СЗ 1-2
{4}
26 км 9/9 1000 м
[Sc]
+0.4 -4.5 70 -1 -1 по сезону 1017.5 1016.3 +0.3 +2.4 0.0
З 3-3
{3}
н/о н/о -0.4 -4.8 72 -5 -5 холодно 1017.5 1016.3
В 1-2
{3}
н/о н/о -0.2 -4.6 72 -2 -2 по сезону 1017.5 1016.3
С 2-2
{3}
н/о н/о +0.2 -5.7 65 -3 -3 прохладно 1017.2 1016.0
СЗ 2-3
{3}
н/о н/о +0.2 -5.8 64 -3 -3 прохладно 1017.3 1016.1
СЗ 2-2
{3}
н/о н/о +0.1 -5.2 67 -3 -3 прохладно 1017.1 1015.9
СЗ 2-2
{3}
22 км 6/6 600 м
[Sc]
+0.7 -5.1 65 -2 -2 по сезону 1017.1 1015.9
СЗ 1-1
{3}
н/о н/о +0.2 -4.7 70 -1 -1 по сезону 1016.9 1015.7
С 1-2
{2}
н/о н/о +0.5 -4.1 71 -1 -1 по сезону 1016.8 1015.6
С 2-2
{2}
н/о н/о +0.9 -4.5 67 -2 -2 по сезону 1016.3 1015.1
С 2-3
{3}
н/о н/о +1.2 -4.8 64 -2 -2 по сезону 1016.2 1015.0
Ю 1-2
{3}
н/о н/о +1.3 -4.1 67 -0 -0 по сезону 1016.1 1014.9
СЗ 1-1
{3}
н/о н/о +1.1 -3.5 71 -0 -0 по сезону 1016.2 1015.0 -0.4 +1.5
СВ 2-2
{3}
н/о н/о +1.1 -1.3 84 -2 -2 по сезону 1016.2 1015.0
-1
{2}
н/о н/о +1.1 -2.1 79 1016.3 1015.1
С 1-2
{2}
15 км 9/9 300 м
[Cu Sc]
+0.5 -2.4 81 -1 -1 по сезону 1016.3 1015.1
СЗ 2-2
{2}
н/о н/о +0.6 -2.3 81 -3 -3 прохладно 1016.3 1015.1
С 1-2
{3}
н/о н/о +0.8 -1.5 85 -1 -1 по сезону 1015.9 1014.7
В 4
{5}
6000 м слаб. ливневой дождь со снегом 8/8 200 м
[Cb cap]
+0.8 -1.5 85 -4 -4 прохладно 1015.9 1014.7 0.0
С 2-3
{4}
н/о н/о +1.3 -4.5 65 -2 -2 по сезону 1015.4 1014.2
С 2-2
{4}
н/о н/о +0.6 -3.6 73 -3 -3 прохладно 1015.2 1014.0
СЗ 1-2
{2}
30 км 6/6 300 м
[Cu Sc]
+0.4 -2.5 81 -1 -1 по сезону 1014.9 1013.7
С 1-1
{3}
н/о н/о +0.1 -2.0 86 -2 -2 по сезону 1014.6 1013.4
СЗ 2-2
{3}
н/о н/о -1.0 -3.2 85 -5 -5 холодно 1014.2 1013.0
С 1
{4}
25 км 6/6 1000 м
[Sc Ac lent]
-0.7 -3.8 80 -3 -3 прохладно 1014.2 1013.0 +1.4 0.0
СЗ 2-3
{3}
н/о н/о -0.1 -4.1 74 -4 -4 прохладно 1013.9 1012.7
СЗ 1-2
{2}
н/о н/о -0.4 -3.7 78 -2 -2 по сезону 1013.7 1012.5
СЗ 2-3
{4}
н/о н/о -1.4 -4.5 79 -5 -5 холодно 1013.3 1012.1
СВ 1-2
{3}
н/о н/о -0.9 -4.0 79 -3 -3 прохладно 1012.9 1011.7
СВ 2-3
{4}
н/о н/о -0.4 -4.2 75 -4 -4 прохладно 1012.6 1011.4
С 3-4
{4}
30 км 9/9 1500 м
[Sc]
+0.2 -5.8 64 -4 -4 прохладно 1012.2 1011.0
С 5-7
{7}
н/о н/о +0.6 -3.6 73 -5 -5 холодно 1011.8 1010.6
С 4-6
{6}
н/о н/о +0.5 -3.8 73 -5 -5 холодно 1011.3 1010.1
С 3-4
{8}
н/о н/о +0.1 -5.5 66 -4 -4 прохладно 1010.9 1009.7
С 6-8
{10}
н/о н/о +0.3 -7.1 58 -6 -6 холодно 1010.5 1009.3
С 7-10
{11}
н/о н/о +0.1 -7.9 55 -6 -6 холодно 1010.0 1008.8
С 7
{11}
30 км 3/3 1500 м
[Sc Ac lent]
0.0 -7.4 57 -7 -7 холодно 1010.0 1008.8 -1.7 <0.5
С 5-6
{9}
н/о н/о +0.1 -7.6 56 -5 -5 холодно 1010.1 1008.9
С 5-7
{8}
н/о н/о +0.4 -7.8 54 -5 -5 холодно 1009.8 1008.6
С 5-7
{8}
30 км 8/6 1000 м
[Cu Sc]
+0.4 -8.6 51 -5 -5 холодно 1009.9 1008.7
С 6-10
{10}
н/о н/о +0.4 -8.9 50 -5 -5 холодно 1009.9 1008.7
С 4-5
{12}
н/о н/о 0.0 -7.4 57 -5 -5 холодно 1009.8 1008.6
С 4
{12}
30 км слаб. ливневой снег 8/5 1000 м
[Cu Sc]
+0.2 -7.6 56 -5 -5 холодно 1009.9 1008.7 0.0
С 6-9
{10}
н/о н/о +0.4 -8.2 52 -5 -5 холодно 1009.7 1008.5
С 8-10
{11}
н/о н/о -0.1 -5.5 67 -7 -7 холодно 1009.7 1008.5
С 5-9
{12}
5000 м слаб. ливневой снег 6/1 300 м
[Cb cap Ac trans]
-1.1 -3.8 82 -7 -7 холодно 1009.6 1008.4
С 8-12
{14}
н/о н/о -0.3 -3.0 82 -8 -8 очень
холодно
1009.7 1008.5
С 8-11
{12}
н/о н/о -0.6 -3.9 78 -8 -8 очень
холодно
1009.8 1008.6
С 6-9
{14}
15 км {ливн. осадки} 8/3 300 м
[Sc Ac und]
-0.4 -2.6 85 -7 -7 холодно 1010.1 1008.9 -1.1 +0.6 0.1
С 7-9
{12}
н/о н/о -0.5 -2.9 84 -8 -8 очень
холодно
1010.4 1009.2
Местоположение метеостанции Ян-Майен (Норвегия): широта 70.93 долгота -8.67 высота над уровнем моря 10 м.
В архиве по умолчанию представлена погода на Ян-Майене за последнюю неделю. Архивные данные за месяц целиком и за предыдущие месяцы, начиная с января 2011 года, Вы можете получить, выбрав интересующий диапазон дат из раскрывающегося списка и нажав кнопку "Найти!".
*Определитесь, кто Вы:
Внимание! Время в таблицах - всемирное. Для получения местного времени необходимо прибавить поправку, которая равна -1 ч.
Смотрите также архив погоды в соседних городах и на ближайших метеорологических станциях:
Партнеры нашего сайта:      
Пояснения к столбцам:
  • Ветер - указаны скорость ветра в м/с - средняя за 10 мин, порывы в срок и между сроками (в фигурных скобках) и направление, откуда дует ветер: С - северный,
  • СВ - северо-восточный, В - восточный, ЮВ - юго-восточный, Ю - южный, ЮЗ - юго-западный, З - западный, СЗ - северо-западный.
  • Видимость - горизонтальная дальность видимости в метрах или километрах. При видимости от 1 до 10 км при отсутствии осадков обычно наблюдается дымка, при ухудшении видимости до 1 км и менее - туман. В сухую погоду видимость может ухудшаться дымом, пылью или мглою.
  • Явления - указаны атмосферные явления, наблюдавшиеся в срок или в последний час перед сроком; фигурными скобками обозначены явления, наблюдавшиеся между сроками (за 1-3 часа до срока); квадратными скобками обозначены град или гололедные отложения с указанием их диаметра в мм.
  • Облачность - указаны через наклонную черту общая и нижняя облачность в баллах и высота нижней границы облаков в метрах; квадратными скобками обозначены формы облаков: Ci - перистые, Cs - перисто-слоистые, Cc - перисто-кучевые, Ac - высококучевые, As - высокослоистые, Sc - слоисто-кучевые, Ns - слоисто-дождевые, Cu - кучевые, Cb - кучево-дождевые. Подробнее классификацию облаков см. в Атласе облаков (PDF).
  • T - Температура воздуха - температура, измеренная на высоте 2 м над землей.
  • Td - Температура точки росы - температура, при понижении до которой содержащийся в воздухе водяной пар достигнет насыщения.
  • f - Относительная влажность воздуха - влажноcть воздуха, измеренная на высоте 2 м над землей.
  • Te - Эффективная температура - температура, которую ощущает одетый по сезону человек в тени. Характеристика душности погоды. При расчете учитывается влияние влажности воздуха и скорости ветра на теплоощущения человека.
  • Tes - Эффективная температура на солнце - температура, которую ощущает человек, с поправкой на солнечный нагрев. Характеристика знойности погоды. Зависит от высоты солнца над горизонтом, облачности и скорости ветра. Ночью, в пасмурную погоду, а также при ветре 12 м/с и более поправка равна нулю.
  • P - Атмосферное давление - приведенное к уровню моря атмосферное давление.
  • Po - Атмосферное давление - измеренное на уровне метеостанции атмосферное давление.
  • Tmin - Минимальная температура - минимум температуры воздуха на высоте 2 м над землей.
  • Tmax - Максимальная температура - максимум температуры воздуха на высоте 2 м над землей.
  • R - Количество осадков - Количество выпавших осадков за период времени, мм. При наведении курсора мыши на число - период времени, за который выпало указанное количество осадков.
  • R24 - Количество осадков - Количество выпавших осадков за 24 часа, мм.
  • S - Снежный покров - Высота снежного покрова, см. При наведении курсора мыши на число - состояние снежного покрова и степень покрытия местности в баллах.